User: anonymous   Login
Location: Brivio
(45.7333°N, 9.4500°E)
Time: 18:03:14
(UTC+00:00)
Language:

Cosmos 1242 Rocket - Orbit

View from above orbital plane
View from above orbital plane
View from above satellite
View from above satellite

Ground track
Ground track

The orbit data is extracted from the following two-line orbital elements,

1 12155U 81008B   19339.52652079  .00000727  00000-0  21925-4 0  9991
2 12155  81.1636  72.4433 0029423 136.7409 223.6146 15.32443488130431
Epoch (UTC): 05 December 2019 12:38:11
Eccentricity: 0.0029423
inclination: 81.1636°
perigee height: 448 km
apogee height: 488 km
right ascension of ascending node: 72.4433°
argument of perigee: 136.7409°
revolutions per day: 15.32443488
mean anomaly at epoch: 223.6146°
orbit number at epoch: 13043

The dashed part of the orbit path shows where the satellite is in the earth's shadow,  

DLR